Location: Northam
(31.6525°S, 116.6655°E)
Time: 12:05:20
(UTC+08:00)

X-37B - Pass Details

Date: 23 January 2021
Orbit: 383 x 391 km, 45.0° (Epoch: 27 February)

Event Time Altitude Azimuth Distance (km) Brightness Sun altitude
Exits shadow 04:57:01 - 284° (WNW) 1,498 2.9 -7.2°
Reaches altitude 10° 04:57:13 10° 283° (WNW) 1,422 2.8 -7.2°
Maximum altitude 05:00:16 40° 211° (SSW) 594 1.5 -6.6°
Drops below altitude 10° 05:03:20 10° 139° (SE) 1,430 4.8 -6.0°
Sets 05:05:30 0° 131° (SE) 2,288 6.4 -5.6°
